Weather History for Enid, OK

Change the Weather History Date:

Saturday, August 2, 2014

  Actual Average Record
Temperature  
Mean Temperature 78 °F -  
Max Temperature 91 °F 92 °F 111 °F (2011)
Min Temperature 66 °F 70 °F 37 °F (1996)
Cooling Degree Days 14    
Growing Degree Days 28 (Base 50)    
Moisture  
Dew Point 66 °F    
Average Humidity 81    
Maximum Humidity 100    
Minimum Humidity 43    
Precipitation  
Precipitation 0.00 in - - ()
Sea Level Pressure  
Sea Level Pressure 30.09 in    
Wind  
Wind Speed 6 mph (SSE)    
Max Wind Speed 17 mph    
Max Gust Speed -    
Visibility 9 miles    
Events      
Averages and records for this station are not official NWS values.
T = Trace of Precipitation, MM = Missing Value Source: NWS Daily Summary

Daily Weather History Graph

Daily Weather History Graph

Search for Another Location

Airport:

Trip Planner

Search our weather history database for the weather conditions in past years. The results will help you decide how hot, cold, wet, or windy it might be!

Date:

Astronomy

Aug. 02, 2014 Rise Set
Actual Time 6:38 AM CDT 8:35 PM CDT
Civil Twilight 6:10 AM CDT 9:04 PM CDT
Nautical Twilight 5:35 AM CDT 9:38 PM CDT
Astronomical Twilight 4:58 AM CDT 10:15 PM CDT
Moon 12:49 PM CDT (8/2) No Moon Set
Length of Visible Light 14h 53m
Length of Day
13h 57m
Waxing Crescent, 37% of the Moon is Illuminated
Aug 2
Waxing Crescent
Aug 3
First Quarter
Aug 10
Full
Aug 17
Last Quarter
Aug 25
New

Hourly Weather History & Observations

Time (CDT) Temp. Heat Index Dew Point Humidity Pressure Visibility Wind Dir Wind Speed Gust Speed Precip Events Conditions
12:35 AM 68.0 °F - 66.2 °F 94% 30.06 in 10.0 mi South 4.6 mph - N/A   Clear
1:15 AM 66.2 °F - 64.4 °F 94% 30.07 in 10.0 mi South 4.6 mph - N/A   Clear
1:35 AM 66.2 °F - 64.4 °F 94% 30.07 in 10.0 mi South 5.8 mph - N/A   Clear
1:55 AM 66.2 °F - 64.4 °F 94% 30.07 in 7.0 mi SSE 5.8 mph - N/A   Clear
2:15 AM 66.2 °F - 64.4 °F 94% 30.07 in 7.0 mi Calm Calm - N/A   Clear
2:35 AM 66.2 °F - 66.2 °F 100% 30.07 in 10.0 mi SSE 4.6 mph - N/A   Clear
2:55 AM 66.2 °F - 66.2 °F 100% 30.07 in 10.0 mi South 4.6 mph - N/A   Clear
3:35 AM 66.2 °F - 64.4 °F 94% 30.07 in 7.0 mi SSE 4.6 mph - N/A   Scattered Clouds
4:15 AM 66.2 °F - 64.4 °F 94% 30.07 in 7.0 mi SSE 4.6 mph - N/A   Scattered Clouds
4:35 AM 66.2 °F - 64.4 °F 94% 30.08 in 7.0 mi SE 5.8 mph - N/A   Clear
4:55 AM 66.2 °F - 66.2 °F 100% 30.07 in 7.0 mi SSE 4.6 mph - N/A   Clear
5:15 AM 66.2 °F - 64.4 °F 94% 30.08 in 7.0 mi SSE 4.6 mph - N/A   Scattered Clouds
5:35 AM 66.2 °F - 66.2 °F 100% 30.08 in 10.0 mi South 6.9 mph - N/A   Scattered Clouds
5:55 AM 66.2 °F - 66.2 °F 100% 30.08 in 10.0 mi SE 5.8 mph - N/A   Scattered Clouds
6:17 AM 68.0 °F - 68.0 °F 100% 30.09 in 10.0 mi SE 5.8 mph - N/A   Mostly Cloudy
6:50 AM 68.0 °F - 68.0 °F 100% 30.10 in 10.0 mi SE 11.5 mph - N/A   Mostly Cloudy
7:50 AM 68.0 °F - 68.0 °F 100% 30.11 in 10.0 mi SE 5.8 mph - N/A   Scattered Clouds
8:50 AM 73.4 °F - 68.0 °F 83% 30.13 in 10.0 mi SSE 11.5 mph - N/A   Scattered Clouds
9:50 AM 78.8 °F - 68.0 °F 69% 30.12 in 10.0 mi South 11.5 mph - N/A   Scattered Clouds
10:50 AM 82.4 °F 85.4 °F 68.0 °F 62% 30.12 in 10.0 mi SSE 9.2 mph - N/A   Scattered Clouds
11:50 AM 86.0 °F 89.4 °F 68.0 °F 55% 30.12 in 10.0 mi South 11.5 mph - N/A   Scattered Clouds
12:50 PM 86.0 °F 88.2 °F 66.2 °F 51% 30.11 in 10.0 mi South 15.0 mph - N/A   Scattered Clouds
1:50 PM 89.6 °F 92.2 °F 66.2 °F 46% 30.10 in 10.0 mi South 11.5 mph - N/A   Mostly Cloudy
2:50 PM 91.4 °F 94.0 °F 66.2 °F 43% 30.08 in 10.0 mi South 17.3 mph - N/A   Mostly Cloudy
3:50 PM 91.4 °F 94.0 °F 66.2 °F 43% 30.07 in 10.0 mi SSE 17.3 mph - N/A   Mostly Cloudy
4:50 PM 89.6 °F 91.1 °F 64.4 °F 43% 30.06 in 10.0 mi SSE 13.8 mph - N/A   Mostly Cloudy
5:50 PM 87.8 °F 89.4 °F 64.4 °F 46% 30.06 in 10.0 mi SSE 13.8 mph - N/A   Mostly Cloudy
6:50 PM 87.8 °F 89.4 °F 64.4 °F 46% 30.06 in 10.0 mi SE 13.8 mph - N/A   Scattered Clouds
8:50 PM 77.0 °F - 66.2 °F 69% 30.07 in 10.0 mi ESE 5.8 mph - N/A   Clear
9:15 PM 73.4 °F - 66.2 °F 78% 30.08 in 10.0 mi ESE 5.8 mph - N/A   Clear
9:35 PM 71.6 °F - 66.2 °F 83% 30.08 in 10.0 mi ESE 6.9 mph - N/A   Clear
9:55 PM 71.6 °F - 66.2 °F 83% 30.09 in 10.0 mi SE 5.8 mph - N/A   Clear
10:15 PM 71.6 °F - 64.4 °F 78% 30.09 in 10.0 mi SE 5.8 mph - N/A   Clear
10:35 PM 69.8 °F - 66.2 °F 88% 30.09 in 10.0 mi SSE 5.8 mph - N/A   Clear
10:55 PM 69.8 °F - 66.2 °F 88% 30.09 in 10.0 mi South 3.5 mph - N/A   Clear
11:15 PM 69.8 °F - 66.2 °F 88% 30.10 in 10.0 mi Calm Calm - N/A   Clear
11:35 PM 69.8 °F - 66.2 °F 88% 30.10 in 10.0 mi Calm Calm - N/A   Clear
11:55 PM 69.8 °F - 66.2 °F 88% 30.10 in 10.0 mi Calm Calm - N/A   Clear